Location: Newark
(16.3678°N, 77.8722°E)
Time: 05:45:06
(UTC+00:00)

Tiros 1 - Pass Details

Date: 09 December 2019
Orbit: 630 x 664 km, 48.4° (Epoch: 28 January)

Event Time Altitude Azimuth Distance (km) Brightness Sun altitude
Rises 10:41:21 0° 284° (WNW) 2,907 11.2 19.3°
Reaches altitude 10° 10:45:52 10° 243° (WSW) 2,003 12.2 18.4°
Maximum altitude 10:46:37 10° 234° (SW) 1,980 12.2 18.2°
Drops below altitude 10° 10:47:22 10° 224° (SW) 2,004 11.6 18.1°
Sets 10:51:55 0° 183° (S) 2,918 11.0 17.2°
